Tracking 35274 objects as of 12-Sep-2026
HD Live streaming from Space Station
objects crossing your sky now

CZ-3C DEB

Track CZ-3C DEB now!


NORAD ID: 40818
Int'l Code: 2010-057AK
Launch date: October 31, 2010
Source: People's Republic of China (PRC)
Launch site: Xichang Space Center, China (XSC)

Note: This is SATELLITE DEBRIS
Your satellite tracking list
Your tracking list is empty




NASA's NSSDC Master Catalog

Two Line Element Set (TLE):
1 40818U 10057AK  26254.07406317  .00000066  00000-0  29721-2 0  9996
2 40818  20.6429  64.5829 7112485 217.8572  60.4249  2.25734182 94923
Source of the keplerian elements: AFSPC